User: anonymous   Login
Location: Caltech
(34.1382°N, 118.1253°W)
Time: 15:09:04
(UTC-07:00)
Language:

Cosmos 2322 - Orbit

View from above orbital plane
View from above orbital plane
View from above satellite
View from above satellite

Ground track
Ground track

The orbit data is extracted from the following two-line orbital elements,

1 23704U 95058A   15085.08091192 -.00000276  00000-0 -12184-3 0  9998
2 23704 070.9858 310.0505 0012408 251.4494 270.5321 14.13306325   810
Epoch (UTC): 26 March 2015 01:56:30
Eccentricity: 0.0012408
inclination: 70.9858°
perigee height: 839 km
apogee height: 857 km
right ascension of ascending node: 310.0505°
argument of perigee: 251.4494°
revolutions per day: 14.13306325
mean anomaly at epoch: 270.5321°
orbit number at epoch: 81

The dashed part of the orbit path shows where the satellite is in the earth's shadow,  

DLR